Location: Bougoura
(13.1861°N, 5.0773°W)
Time: 04:09:02
(UTC+00:00)

Cosmos 1937 Rocket - Pass Details

Date: 18 September 2020
Orbit: 747 x 779 km, 74.0° (Epoch: 23 October)

Event Time Altitude Azimuth Distance (km) Brightness Sun altitude
Rises 18:43:27 0° 200° (SSW) 3,248 7.0 -6.8°
Reaches altitude 10° 18:45:51 10° 203° (SSW) 2,319 6.3 -7.4°
Maximum altitude 18:51:03 62° 283° (WNW) 864 4.1 -8.6°
Drops below altitude 10° 18:56:14 10° 4° (N) 2,304 6.0 -9.9°
Sets 18:58:38 0° 8° (N) 3,226 6.7 -10.5°
